Regional Weather Roundup
Issued by NWS

Home | Current Version | Previous Version | Graphics & Text | Print | Product List | Glossary On
Versions: 1 2 3 4 5 6 7 8 9 10 11 12 13 14 15 16 17 18 19 20 21 22 23 24 25 26 27 28 29 30 31 32 33 34 35 36 37 38 39 40 41 42 43 44 45 46 47 48 49 50
000
ASUS43 KIND 181709
RWRIN

WEATHER ROUNDUP FOR INDIANA
NATIONAL WEATHER SERVICE INDIANAPOLIS IN
100 PM EDT WED OCT 18 2017

NOTE: "FAIR" INDICATES FEW OR NO CLOUDS BELOW 12,000 FEET WITH NO
SIGNIFICANT WEATHER AND/OR OBSTRUCTIONS TO VISIBILITY.

* - STATION DOES NOT REPORT WEATHER SUCH AS PRECIPITATION OR FOG.

+ - STATION NOT QUALITY CONTROLLED BY THE NATIONAL WEATHER SERVICE.
    USE DATA WITH CAUTION...ESPECIALLY DEWPOINT AND RELATIVE
    HUMIDITY OBSERVATIONS.

INZ001>003-010>013-019-020-181800-
NORTHWEST INDIANA

CITY           SKY/WX    TMP DP  RH WIND       PRES   REMARKS
GARY /AIRPORT/ SUNNY     66  39  37 S7        30.17F
KNOX *+        SUNNY     64  43  45 S12G21    30.20F
LA PORTE +     SUNNY     64  43  47 SW13G18   30.19F
MICHIGAN CITY+ SUNNY     64  43  45 S12G20    30.18F
MONTICELLO +   SUNNY     64  42  43 S9        30.22F
RENSSELAER +   SUNNY     64  32  29 S15G22    30.20F
VALPARAISO     SUNNY     66  44  45 S13       30.19F

$$

LMZ046-743>745-181800-
SOUTHERN LAKE MICHIGAN

STATION/POSITION TIME  TEMP    WIND        PRES    WAVE
                       AIR SEA DIR/SP/G            HT
                 (UTC) (F)     (DEG/KT/KT) (MB)    (FT)
BURNS HARBOR     1640   63     190/ 19/ 22 1021.7F
MICHIGAN CITY    1640   62     180/ 17/ 21   N/A
5NW MICH CITY    1700   61 57  200/ 12/ 16   N/A     2

$$

INZ004-005-014>016-021>024-181800-
NORTH CENTRAL INDIANA

CITY           SKY/WX    TMP DP  RH WIND       PRES   REMARKS
ELKHART        SUNNY     63  41  45 SW9       30.20F
GOSHEN         SUNNY     63  40  42 S20       30.21F
LOGANSPORT +   SUNNY     63  43  48 S13       30.24F
PERU/GRISSOM   SUNNY     65  44  46 SW14      30.23F
SOUTH BEND     SUNNY     63  43  48 S16       30.20F
WARSAW +       SUNNY     63  43  48 SW8       30.22F

$$

INZ006>009-017-018-025>027-181800-
NORTHEAST INDIANA

CITY           SKY/WX    TMP DP  RH WIND       PRES   REMARKS
AUBURN +       SUNNY     63  41  45 S10G16    30.25F
FORT WAYNE     MOSUNNY   65  42  43 SW14      30.25F
HUNTINGTON +   SUNNY     64  40  41 SW8G17    30.25F
KENDALLVILLE + SUNNY     64  44  48 SW14      30.23F

$$

INZ028-029-035-036-043>045-051>053-181800-
WEST CENTRAL INDIANA

CITY           SKY/WX    TMP DP  RH WIND       PRES   REMARKS
CRAWFORDSVL +  SUNNY     63  43  48 S15G21    30.24
GREENCASTLE +  SUNNY     63  41  45 S8        30.26F
LAFAYETTE      SUNNY     64  43  46 S10       30.23F
TERRE HAUTE    SUNNY     66  43  43 S12G22    30.25F

$$

INZ030>032-037>040-046>048-054>057-064-065-181800-
CENTRAL INDIANA

CITY           SKY/WX    TMP DP  RH WIND       PRES   REMARKS
ANDERSON       SUNNY     64  43  45 SW12      30.27
CP ATTERBURY + SUNNY     66  43  42 S13       30.28F
COLUMBUS       MOSUNNY   64  37  36 S10       30.29F
FISHERS *+     SUNNY     64  48  55 SW10      30.27
FRANKFORT +    SUNNY     67  44  43 SW7G17    30.26F
GREENWOOD *+   SUNNY     69  44  40 SW12      30.28F
INDIANAPOLIS   MOSUNNY   65  45  48 SW12      30.27F
-EAGLE CREEK   SUNNY     65  42  43 SW9       30.26F
KOKOMO +       SUNNY     65  43  44 S13       30.25
MARION +       SUNNY     64  43  45 SW16      30.26F
MT COMFORT *+  SUNNY     64  48  55 SW7       30.27F
SHELBYVILLE    SUNNY     67  42  40 SW12      30.27F
ZIONSVILLE +   SUNNY     63  43  49 SW13G22   30.27F

$$

INZ033-034-041-042-049-050-058-059-181800-
EAST CENTRAL INDIANA

CITY           SKY/WX    TMP DP  RH WIND       PRES   REMARKS
MUNCIE         SUNNY     67  41  38 S9        30.26F
RICHMOND +     SUNNY     63  41  45 SW10      30.30F

$$

INZ060-061-067>069-081>083-085>088-181800-
SOUTHWEST INDIANA

CITY           SKY/WX    TMP DP  RH WIND       PRES   REMARKS
EVANSVILLE     SUNNY     67  47  48 SW12      30.28F
HUNTINGBURG +  SUNNY     66  47  50 S14       30.29F
WASHINGTON +   SUNNY     67  40  36 SW13      30.27F

$$

INZ062-063-066-070>080-084-089>092-181800-
SOUTH CENTRAL AND SOUTHEAST INDIANA

CITY           SKY/WX    TMP DP  RH WIND       PRES   REMARKS
BEDFORD +      SUNNY     66  43  42 S9        30.28
BLOOMINGTON    SUNNY     66  42  41 SW12G20   30.27F
MADISON *+     SUNNY     68  39  34 S8        30.32F
NORTH VERNON + SUNNY     64  43  45 S9        30.30F
SEYMOUR +      SUNNY     68  45  42 S10G16    30.29

$$





USA.gov is the U.S. government's official web portal to all federal, state and local government web resources and services.